Location: *
(48.8489°N, 2.3218°E)
Time: 00:38:30
(UTC+00:00)

SL-8 Rocket - Pass Details

Date: 23 August 2019
Orbit: 957 x 991 km, 82.9° (Epoch: 19 September)

Event Time Altitude Azimuth Distance (km) Brightness Sun altitude
Rises 22:10:09 0° 353° (N) 3,712 8.1 -25.7°
Reaches altitude 10° 22:12:48 10° 360° (N) 2,756 7.2 -25.9°
Maximum altitude 22:18:54 49° 74° (ENE) 1,255 4.4 -26.4°
Enters shadow 22:19:36 47° 94° (E) 1,285 4.4 -26.4°
